Temperature
19 17 17 17 18 18 18 18 18 18 18 17 17 16 16 16 16 16 16 17 17 17 18 18 17 18 18 17 17 17 17 17 17 16 16 16 16 16 16 15 15 15 15 15
17 17 18 18 18 18 18 18 18 18 18 17 17 16 16 16 16 16 16 16 17 17 17 17 17 17 17 17 17 17 17 17 17 16 16 16 16 16 15 15 15 15 15 15
18 18 19 19 18 18 18 18 18 18 17 17 17 16 16 15 16 16 16 16 16 17 17 17 17 17 17 17 17 17 17 17 17 16 16 16 16 15 15 15 15 15 15 15
18 18 19 19 18 18 18 18 18 18 17 15 17 15 15 14 14 15 15 16 16 16 17 17 17 17 17 17 17 17 17 17 16 16 16 16 16 15 15 15 15 15 15 14
18 18 19 19 19 18 18 18 17 17 16 15 15 15 14 14 14 14 15 15 16 16 16 16 17 17 17 17 17 17 17 17 16 16 16 16 15 15 15 15 15 15 14 14
18 18 19 19 19 18 18 16 16 14 14 15 15 15 14 13 15 15 15 15 16 16 16 16 16 16 16 16 16 16 16 16 16 16 16 16 15 15 15 15 15 14 14 14
17 18 18 19 18 18 17 15 15 15 14 14 15 14 14 15 15 15 15 15 15 16 16 16 16 16 16 16 16 16 16 16 16 16 16 15 15 15 15 14 14 14 14 14
16 16 18 18 18 17 16 16 15 15 14 14 14 14 14 15 15 15 15 15 16 15 16 16 16 16 16 16 16 16 16 16 16 15 15 15 15 15 14 14 14 14 14 14
16 16 18 18 18 17 16 15 15 14 14 14 14 14 14 15 14 14 15 15 15 15 15 15 15 15 15 15 15 15 15 15 15 15 15 15 14 14 14 14 14 14 13 13
16 16 17 17 18 17 16 14 13 14 14 14 14 14 14 15 14 14 14 14 15 15 15 15 15 15 15 15 15 15 15 15 15 15 14 14 14 14 14 13 13 13 13 13
16 16 16 16 17 17 16 15 13 12 13 13 13 14 14 14 14 13 13 14 14 15 15 15 15 15 15 15 15 14 14 14 14 14 14 14 13 13 13 13 13 13 13 13
14 13 14 15 16 16 16 15 13 14 13 12 12 13 15 14 14 14 14 14 15 15 15 15 15 15 14 14 14 14 14 14 14 13 13 13 13 13 13 13 12 12 12 12
14 13 14 14 15 15 15 14 13 12 12 11 12 13 14 13 13 14 14 14 14 14 14 14 14 14 14 14 14 14 14 13 13 13 13 13 12 12 12 12 12 12 12 12
14 13 13 14 14 14 15 15 13 13 12 11 11 13 13 13 13 13 14 14 14 14 14 14 14 14 13 13 13 13 13 13 13 13 12 12 12 12 12 12 12 11 11 11
13 13 13 13 14 14 14 14 14 13 13 12 13 12 13 13 13 13 14 14 13 14 14 13 13 13 13 13 13 13 13 13 12 12 12 12 12 11 11 11 11 11 11 11
12 13 14 14 14 14 14 14 13 13 13 12 13 13 13 13 13 13 13 13 13 13 13 13 13 13 13 13 13 13 12 12 12 12 12 11 11 11 11 11 11 10 10 10
11 12 12 12 13 14 13 13 13 13 12 12 12 13 12 12 12 12 13 13 13 13 13 13 13 13 12 12 12 12 12 12 11 11 11 11 11 11 11 10 10 10 10 10
11 11 10 11 13 13 13 13 13 13 13 12 12 12 12 12 13 13 13 13 13 13 13 13 12 12 12 12 12 12 12 11 11 11 11 10 10 10 10 10 10 10 9 9
10 10 10 10 11 12 13 13 13 13 13 12 11 11 11 12 12 12 13 13 13 13 13 12 12 12 11 11 11 11 11 11 11 10 10 10 9 9 9 9 9 9 9 9
9 9 10 9 12 12 13 13 13 13 12 12 12 11 11 11 10 11 13 13 13 12 12 12 12 11 11 11 10 10 10 10 10 10 9 9 9 9 9 9 9 8 8 8
10 9 9 9 10 10 11 12 13 13 12 13 12 12 11 11 11 13 13 13 12 12 12 11 11 11 11 10 10 10 10 10 9 9 9 9 8 8 8 8 8 8 8 8
10 9 9 8 10 11 12 12 11 12 13 13 13 13 12 12 12 12 12 12 12 11 11 11 11 10 10 10 10 9 9 9 9 8 8 8 8 8 7 7 7 7 7 7
9 9 9 9 10 11 12 12 13 13 13 13 13 13 12 12 12 12 12 12 11 11 11 10 10 10 9 9 9 9 8 8 8 8 8 7 7 7 7 7 7 7 7 6
8 8 8 8 9 11 12 12 13 13 13 13 13 13 12 12 12 11 11 11 11 10 10 10 9 9 9 8 8 8 8 8 7 7 7 7 6 6 6 6 6 6 6 6
8 7 7 8 9 10 12 12 13 12 12 12 12 12 12 12 11 11 11 11 10 10 10 9 9 8 8 8 8 7 7 7 7 7 6 6 6 6 6 5 5 5 5 5
7 7 8 9 10 10 12 12 12 12 12 12 12 12 11 11 11 11 10 10 10 9 9 9 8 8 8 7 7 7 7 6 6 6 6 6 5 5 5 5 5 4 4 4
Wind_Speed
5 5 2 4 5 4 4 3 2 3 1 3 2 2 3 2 0 1 2 3 3 4 2 1 0 0 2 2 2 1 1 1 2 1 1 1 1 1 2 3 4 4 4 4
6 1 3 2 2 3 3 3 1 1 1 2 1 2 3 1 2 3 3 3 3 3 1 1 1 1 1 2 1 1 1 1 1 1 1 1 1 1 1 2 4 4 3 3
3 3 1 3 2 2 1 4 3 2 2 3 1 5 4 3 2 2 1 1 1 3 3 1 1 1 1 1 1 1 1 1 1 2 2 3 3 2 2 2 1 3 3 3
1 2 2 2 1 3 3 4 4 3 3 2 0 3 5 3 4 3 3 2 2 2 1 1 1 0 1 1 1 1 1 2 1 2 3 3 2 1 1 1 0 1 2 2
1 0 2 1 2 3 3 2 3 2 3 1 2 1 6 3 4 5 5 4 3 3 2 1 1 1 1 0 1 1 2 2 2 2 3 3 2 1 0 0 1 1 1 2
2 1 1 2 0 1 3 6 6 5 4 1 3 3 5 3 5 5 4 3 3 2 1 1 0 1 1 1 1 1 2 1 1 2 2 3 3 2 1 0 0 0 1 1
5 4 2 1 3 4 5 5 3 4 3 4 2 2 6 5 4 5 5 3 2 2 2 1 1 0 0 1 1 1 2 1 1 1 1 2 3 3 3 2 1 1 1 1
1 5 3 0 3 3 2 6 5 3 3 4 2 4 6 4 4 3 3 2 1 2 2 2 3 2 2 1 1 1 2 1 1 1 1 1 1 2 2 2 2 2 2 2
3 4 4 2 0 6 4 3 5 5 1 2 4 5 6 2 4 2 1 1 1 2 2 2 2 2 2 2 2 2 2 1 1 1 1 1 1 1 1 1 2 2 2 1
5 2 4 3 3 4 4 7 5 4 2 3 5 5 4 5 4 3 2 2 2 2 2 2 2 2 2 2 1 1 2 2 1 1 1 1 1 1 1 1 1 2 1 1
3 2 4 3 1 2 3 3 4 4 4 4 3 6 4 5 4 4 4 4 3 3 3 2 2 2 1 1 1 1 1 1 1 1 1 1 1 0 0 1 2 2 1 1
3 4 2 4 3 1 3 4 5 4 3 4 3 6 5 4 4 4 4 4 3 3 2 2 2 1 0 1 1 1 1 1 2 1 1 1 1 0 1 1 2 1 1 1
4 4 2 6 5 3 1 1 3 4 4 5 4 7 3 3 3 3 3 3 2 2 1 1 1 1 1 1 1 1 1 2 2 1 1 1 0 0 1 1 1 1 1 1
5 4 5 6 6 3 2 2 3 5 4 5 7 8 8 7 6 5 3 2 2 2 1 1 2 2 2 2 2 1 1 1 1 1 1 1 2 2 2 1 1 1 1 1
4 3 4 5 4 2 4 4 4 6 7 8 8 8 10 8 7 5 3 2 1 1 1 2 2 2 2 2 2 1 1 1 1 1 1 2 2 1 1 1 1 1 1 1
3 3 1 3 3 3 4 6 6 6 5 6 6 9 8 5 2 2 2 2 2 2 2 2 2 2 2 3 3 2 2 2 1 1 1 1 1 1 1 2 1 1 1 1
2 4 2 3 4 3 6 7 6 4 4 6 7 8 4 3 3 3 3 3 4 3 3 3 3 3 3 3 3 3 3 2 1 1 1 1 1 1 2 2 1 1 1 1
5 4 3 1 2 5 7 3 4 5 5 6 5 5 4 5 3 2 3 4 4 3 3 3 3 2 2 1 1 1 1 1 1 1 1 1 1 1 2 1 2 2 2 2
4 6 4 3 3 7 7 3 3 4 4 3 3 3 3 2 3 3 3 3 4 4 3 2 2 2 1 1 1 0 0 0 1 1 1 2 1 2 2 2 2 2 2 2
4 4 4 3 3 5 6 4 1 3 3 3 2 1 0 3 1 5 4 2 2 1 1 1 0 0 0 1 0 1 0 0 1 2 2 2 1 2 3 3 3 2 2 3
2 2 3 4 5 7 6 4 2 3 5 3 2 3 3 4 5 5 2 1 1 1 1 0 1 0 1 1 1 1 0 2 3 2 1 2 2 2 2 2 2 2 2 2
5 3 4 4 4 7 3 2 3 5 3 2 3 3 4 4 3 2 1 1 1 0 0 0 1 1 1 0 1 1 1 3 2 1 1 2 2 2 2 1 1 1 1 2
4 6 5 7 6 4 2 4 3 2 2 3 3 4 3 2 3 3 2 2 2 1 1 1 1 0 1 1 1 1 3 2 1 1 2 2 2 2 2 1 1 2 1 1
4 1 3 4 6 5 5 4 3 2 3 4 4 4 3 3 3 3 2 2 2 2 2 1 1 1 1 1 1 2 2 1 1 1 1 1 1 2 2 2 1 1 1 1
5 3 3 5 6 6 6 5 5 4 3 3 3 3 4 4 3 3 3 3 3 2 2 2 2 2 2 2 2 2 1 0 0 1 1 1 1 1 1 2 2 2 2 2
4 6 6 8 7 5 7 5 4 4 5 5 4 3 3 4 4 3 3 3 2 2 1 1 2 2 2 1 2 2 2 1 1 1 2 1 1 1 1 2 3 4 3 5
Wind_Direction
33 71 136 200 189 170 156 156 200 246 223 127 177 269 291 301 17 208 233 231 229 241 263 291 304 87 94 79 88 116 111 85 93 84 98 94 55 23 27 34 42 49 54 57
43 3 234 180 134 127 135 144 196 300 68 142 197 286 289 255 242 220 216 237 239 248 291 351 30 46 97 132 129 123 148 135 146 150 142 130 120 81 65 26 33 41 59 69
144 254 156 133 126 119 180 182 197 199 38 49 37 327 320 302 317 335 310 251 246 213 216 219 80 76 85 137 179 170 166 149 147 128 91 68 61 43 29 18 12 17 49 65
220 284 106 115 167 150 246 230 182 159 115 297 37 286 295 300 322 318 300 283 261 244 214 193 144 130 182 216 200 155 128 122 124 123 124 122 129 140 238 249 280 8 40 53
285 136 113 155 239 184 215 88 113 124 134 32 6 190 291 325 302 284 280 270 254 233 198 192 197 210 207 169 130 139 114 102 107 131 148 144 143 177 191 66 63 19 14 33
280 294 183 196 209 138 115 73 62 52 73 311 257 184 285 262 251 274 271 268 248 212 189 168 71 78 56 45 64 100 101 90 102 127 141 155 161 157 125 46 48 330 321 334
349 337 332 113 72 37 73 85 37 2 6 261 259 197 253 263 255 239 243 250 246 195 175 162 142 122 129 89 62 86 107 83 79 120 147 175 177 167 178 203 209 227 278 278
31 306 305 306 167 169 136 133 153 201 239 286 322 237 257 281 291 261 231 203 149 169 180 189 199 196 189 178 142 123 121 98 71 119 145 172 177 181 203 206 201 211 226 243
174 266 302 310 239 137 133 154 161 138 162 283 288 290 299 337 357 8 53 102 141 191 198 206 215 201 193 186 179 172 153 134 110 135 124 95 183 196 212 225 212 225 239 250
160 244 304 315 60 43 136 143 103 116 147 278 297 287 270 295 301 305 264 232 233 224 219 227 228 216 219 211 196 157 154 171 187 173 176 176 198 221 225 213 218 228 246 248
134 160 313 6 121 200 100 110 112 124 151 168 267 277 236 236 250 254 256 245 228 224 227 230 243 225 207 195 168 154 157 158 161 189 198 179 206 205 202 240 246 233 242 222
130 124 266 277 277 232 162 166 147 160 219 181 193 267 280 251 256 241 250 253 236 217 224 232 229 213 180 198 194 187 184 187 209 212 192 194 207 174 176 255 266 254 254 265
130 110 31 340 341 5 64 132 144 133 133 165 189 261 305 328 303 267 248 249 237 215 214 243 262 247 248 242 224 207 214 230 237 208 190 199 226 203 232 256 280 281 264 291
113 118 170 208 231 239 261 233 158 139 173 209 221 250 287 296 294 290 275 248 218 203 206 224 247 252 262 261 242 226 246 247 220 190 179 199 231 230 235 235 244 263 255 256
105 160 214 236 244 224 236 241 209 201 205 210 235 240 261 265 262 260 253 240 218 210 221 231 241 248 257 272 270 250 250 252 201 160 187 226 238 242 230 205 226 247 260 268
87 155 185 270 267 246 261 260 239 235 226 224 248 264 264 273 262 249 222 209 219 238 238 243 255 261 258 255 259 249 238 240 182 172 247 276 270 256 225 211 205 224 271 283
133 142 149 264 292 340 280 249 220 212 214 199 226 249 271 276 248 233 219 203 215 230 235 237 243 244 251 255 247 230 223 206 172 183 261 302 288 275 254 226 200 220 249 265
151 138 147 236 32 246 249 252 206 206 243 228 241 263 256 250 253 246 217 205 219 228 233 240 242 254 258 255 266 246 210 172 177 197 269 293 294 269 276 243 232 238 235 239
161 147 138 145 223 274 290 272 189 196 265 248 237 281 321 2 41 328 276 227 222 221 234 236 230 231 238 270 291 83 101 154 179 257 279 283 266 255 258 253 253 250 243 252
70 106 128 146 200 247 259 282 257 137 282 275 198 232 201 80 39 276 268 238 230 245 233 235 277 55 302 296 48 98 30 333 271 264 267 281 275 250 252 247 250 260 244 251
72 85 151 184 223 261 268 290 94 152 258 282 214 216 193 202 229 260 261 247 211 221 231 131 100 89 272 288 117 116 317 281 273 273 283 302 296 271 263 266 258 258 263 268
178 170 189 164 206 257 275 118 168 224 262 262 241 230 225 251 288 297 242 197 180 255 237 145 105 308 305 317 137 157 272 281 296 310 305 299 302 310 334 312 300 281 274 276
200 196 197 196 217 247 237 218 253 228 250 259 253 255 224 254 282 289 266 223 223 219 233 235 171 235 324 318 167 224 278 300 351 1 333 323 335 344 346 333 318 315 307 281
264 204 183 250 267 271 272 275 282 252 254 263 255 242 214 230 248 257 250 247 240 233 237 236 185 192 290 295 280 257 286 321 27 345 325 325 343 340 339 333 317 312 297 290
241 193 222 257 275 297 288 269 272 284 287 285 277 246 222 219 237 233 230 234 234 239 239 209 200 216 250 274 296 311 311 297 262 268 285 298 306 309 321 318 307 299 284 279
212 198 207 243 244 230 262 270 268 273 273 263 263 270 252 221 224 227 231 228 219 225 233 233 224 221 238 253 288 307 301 239 217 270 280 276 289 298 301 312 325 327 317 323
Height
1520 1525 1530 1529 1528 1529 1532 1536 1539 1537 1533 1535 1538 1539 1536 1534 1534 1534 1534 1534 1535 1536 1537 1538 1538 1538 1539 1539 1540 1540 1540 1541 1541 1541 1541 1540 1540 1539 1539 1538 1538 1537 1537 1536
1526 1529 1526 1525 1527 1529 1532 1537 1538 1536 1533 1536 1538 1539 1535 1534 1534 1533 1533 1533 1533 1534 1535 1536 1537 1537 1538 1538 1539 1539 1540 1540 1540 1540 1540 1540 1540 1539 1539 1538 1538 1538 1537 1537
1528 1527 1524 1526 1528 1531 1533 1536 1537 1537 1536 1536 1538 1541 1537 1534 1533 1533 1532 1532 1532 1533 1533 1535 1536 1536 1537 1537 1538 1538 1539 1539 1540 1540 1540 1540 1540 1539 1539 1538 1538 1537 1537 1537
1526 1524 1524 1527 1529 1530 1536 1530 1532 1534 1541 1547 1543 1554 1541 1536 1534 1532 1531 1531 1531 1532 1532 1533 1534 1535 1536 1536 1537 1538 1538 1538 1539 1539 1539 1539 1538 1538 1538 1537 1537 1537 1537 1536
1527 1525 1526 1528 1528 1528 1530 1528 1532 1535 1541 1548 1547 1552 1547 1538 1536 1532 1530 1529 1530 1531 1531 1532 1533 1534 1535 1536 1536 1537 1537 1537 1538 1538 1538 1538 1537 1537 1537 1537 1536 1536 1535 1535
1525 1524 1524 1525 1525 1526 1528 1532 1537 1543 1548 1556 1549 1553 1551 1541 1534 1530 1528 1528 1528 1529 1530 1531 1532 1533 1534 1535 1535 1536 1536 1536 1536 1536 1536 1536 1536 1536 1536 1536 1535 1534 1534 1534
1531 1526 1524 1524 1526 1528 1531 1542 1555 1557 1562 1559 1548 1551 1547 1532 1529 1528 1527 1527 1527 1528 1529 1530 1531 1531 1532 1533 1533 1534 1534 1534 1535 1535 1535 1534 1534 1535 1534 1534 1534 1533 1533 1532
1540 1540 1527 1524 1526 1531 1534 1540 1557 1564 1565 1560 1549 1551 1540 1529 1526 1525 1525 1525 1526 1527 1528 1529 1529 1530 1531 1531 1532 1532 1532 1533 1533 1533 1533 1533 1533 1533 1532 1532 1532 1531 1531 1531
1541 1539 1527 1525 1524 1527 1535 1541 1542 1554 1557 1561 1555 1547 1535 1527 1526 1524 1524 1524 1525 1526 1527 1527 1528 1529 1529 1529 1530 1530 1530 1531 1531 1531 1530 1530 1530 1530 1530 1530 1530 1529 1529 1528
1533 1538 1530 1526 1525 1528 1530 1537 1547 1554 1562 1566 1557 1550 1544 1531 1528 1525 1524 1524 1524 1525 1526 1526 1527 1527 1527 1528 1528 1528 1528 1528 1528 1528 1528 1528 1527 1527 1527 1527 1527 1526 1526 1526
1530 1538 1535 1531 1531 1533 1535 1538 1544 1552 1554 1563 1564 1553 1531 1529 1526 1525 1524 1523 1523 1524 1524 1525 1525 1525 1526 1526 1526 1526 1526 1526 1526 1526 1525 1525 1525 1525 1524 1524 1524 1524 1523 1523
1531 1539 1543 1536 1530 1529 1530 1534 1542 1550 1553 1557 1561 1553 1525 1525 1523 1523 1523 1522 1522 1523 1523 1524 1524 1523 1523 1523 1523 1523 1524 1524 1524 1523 1523 1523 1522 1522 1521 1521 1521 1520 1520 1520
1531 1539 1548 1544 1541 1534 1533 1534 1537 1543 1550 1558 1559 1548 1525 1524 1522 1521 1521 1521 1521 1521 1522 1522 1522 1522 1521 1521 1522 1521 1521 1521 1521 1521 1520 1520 1520 1519 1519 1518 1518 1518 1517 1517
1527 1537 1544 1548 1543 1537 1535 1534 1536 1541 1549 1552 1549 1539 1527 1524 1522 1520 1519 1519 1520 1520 1520 1520 1520 1519 1519 1520 1520 1519 1519 1519 1519 1518 1518 1517 1517 1516 1516 1516 1515 1515 1514 1514
1528 1536 1536 1536 1533 1534 1533 1532 1533 1536 1537 1541 1536 1533 1525 1521 1519 1518 1518 1518 1518 1517 1518 1518 1518 1518 1518 1518 1517 1517 1517 1517 1516 1516 1515 1515 1514 1514 1513 1513 1512 1512 1511 1510
1529 1534 1534 1534 1531 1532 1532 1529 1529 1530 1530 1531 1529 1527 1518 1516 1516 1516 1515 1516 1515 1515 1515 1516 1516 1516 1515 1515 1515 1515 1515 1515 1514 1514 1513 1512 1512 1511 1510 1509 1509 1508 1508 1507
1532 1535 1539 1541 1534 1532 1535 1526 1525 1526 1525 1525 1526 1521 1516 1515 1514 1514 1513 1513 1514 1514 1514 1514 1514 1514 1513 1513 1513 1513 1512 1512 1512 1511 1510 1510 1509 1507 1507 1506 1505 1505 1504 1504
1531 1535 1540 1542 1538 1541 1528 1518 1518 1520 1520 1519 1517 1515 1514 1512 1512 1512 1512 1512 1512 1512 1512 1512 1512 1512 1512 1511 1511 1511 1510 1510 1509 1508 1507 1506 1505 1504 1504 1503 1502 1502 1501 1500
1526 1532 1540 1545 1543 1536 1524 1517 1517 1519 1519 1516 1515 1514 1512 1511 1511 1511 1511 1511 1511 1511 1511 1511 1511 1510 1510 1510 1509 1508 1508 1507 1506 1505 1504 1503 1502 1501 1500 1499 1498 1498 1497 1497
1527 1529 1538 1544 1540 1539 1524 1515 1513 1516 1519 1513 1512 1512 1512 1512 1515 1511 1509 1509 1509 1509 1509 1509 1509 1508 1508 1508 1507 1506 1505 1504 1503 1502 1501 1500 1499 1498 1497 1496 1495 1494 1494 1493
1532 1535 1538 1541 1540 1531 1519 1514 1514 1524 1521 1512 1511 1511 1511 1511 1511 1509 1507 1507 1508 1508 1507 1507 1507 1506 1506 1506 1505 1504 1502 1501 1501 1499 1498 1497 1496 1495 1493 1492 1491 1490 1490 1489
1531 1535 1537 1539 1539 1532 1515 1514 1517 1516 1511 1510 1510 1509 1509 1508 1507 1506 1505 1505 1505 1505 1505 1505 1505 1504 1504 1503 1502 1501 1500 1499 1498 1497 1495 1494 1493 1491 1490 1489 1487 1486 1485 1484
1527 1526 1526 1527 1524 1515 1513 1512 1512 1511 1510 1509 1508 1507 1506 1506 1505 1505 1504 1504 1504 1504 1503 1503 1503 1502 1501 1501 1500 1499 1498 1497 1495 1494 1492 1491 1490 1489 1487 1485 1484 1483 1482 1481
1522 1520 1521 1521 1514 1512 1511 1510 1509 1509 1508 1507 1506 1505 1504 1504 1503 1503 1502 1502 1501 1501 1501 1500 1500 1499 1499 1498 1498 1497 1496 1494 1493 1491 1490 1488 1487 1486 1484 1483 1481 1480 1478 1477
1518 1519 1519 1517 1511 1509 1507 1507 1506 1506 1505 1504 1503 1503 1502 1501 1500 1500 1499 1499 1499 1498 1498 1498 1497 1496 1496 1495 1494 1493 1493 1491 1490 1488 1487 1486 1484 1483 1481 1480 1479 1477 1476 1475
1514 1515 1516 1512 1507 1507 1505 1504 1504 1503 1502 1501 1500 1499 1499 1499 1498 1497 1496 1496 1496 1495 1495 1494 1494 1493 1493 1492 1491 1490 1489 1488 1487 1485 1484 1482 1481 1480 1479 1477 1476 1475 1474 1472